Location: Newark
(39.6867°N, 100.6772°W)
Time: 08:04:42
(UTC+00:00)

Vanguard 1 Rocket - Pass Details

Date: 28 October 2019
Orbit: 651 x 4226 km, 34.3° (Epoch: 21 November)

Event Time Altitude Azimuth Distance (km) Brightness Sun altitude
Rises 12:56:04 0° 194° (SSW) 3,664 10.5 -2.8°
Reaches altitude 10° 12:59:02 10° 177° (S) 3,062 10.4 -2.2°
Maximum altitude 13:04:27 20° 131° (SE) 3,007 11.2 -1.2°
Drops below altitude 10° 13:12:27 10° 90° (E) 4,773 12.7 0.2°
Sets 13:18:47 0° 78° (ENE) 6,523 12.9 1.4°
